When you browse on this site, cookies collect data to enhance your experience and personalize the content and advertising you see.
Visit our Privacy Policy to learn more. By continuing to use the site, you agree to this use of cookies and data.
  • In Hungary
  • List of Countries
  • For 7 days
  • Water Temperature
  • Weather Map
  • News
  • Weather Widgets
  • user-avatar
    Login

    Hourly Weather Kuliki

    Today, 27 January, Monday

    Time Temperature Precipitation Wind Pressure Humidity
    00:00 -6°C° 0.1 mm 7 mps 742 mmHg 94%
    01:00 -5°C° 0.3 mm 8 mps 742 mmHg 94%
    02:00 -4°C° 0.3 mm 8 mps 741 mmHg 94%
    03:00 -4°C° 0 mm 8 mps 740 mmHg 96%
    04:00 -2°C° 0.1 mm 8 mps 740 mmHg 96%
    05:00 -2°C° 0.1 mm 8 mps 740 mmHg 96%
    06:00 -2°C° 0.1 mm 8 mps 740 mmHg 96%
    07:00 -2°C° 0.2 mm 7 mps 741 mmHg 95%
    08:00 -2°C° 0.2 mm 6 mps 742 mmHg 95%
    09:00 -2°C° 0.2 mm 6 mps 742 mmHg 95%
    10:00 -2°C° 0 mm 5 mps 743 mmHg 92%
    11:00 -2°C° 0 mm 5 mps 744 mmHg 88%
    12:00 -3°C° 0 mm 4 mps 745 mmHg 85%
    13:00 -2°C° 0 mm 3 mps 745 mmHg 84%
    14:00 -4°C° 0 mm 3 mps 746 mmHg 84%
    15:00 -4°C° 0 mm 2 mps 746 mmHg 84%
    16:00 -5°C° 0 mm 2 mps 747 mmHg 84%
    17:00 -4°C° 0 mm 1 mps 747 mmHg 85%
    18:00 -6°C° 0 mm 1 mps 748 mmHg 85%
    19:00 -6°C° 0 mm 1 mps 748 mmHg 84%
    20:00 -6°C° 0 mm 1 mps 749 mmHg 84%
    21:00 -7°C° 0 mm 2 mps 749 mmHg 83%
    22:00 -7°C° 0 mm 2 mps 749 mmHg 84%
    23:00 -7°C° 0 mm 2 mps 749 mmHg 85%

    Tomorrow, 28 January, Tuesday

    Time Temperature Precipitation Wind Pressure Humidity
    00:00 -7°C° 0 mm 2 mps 750 mmHg 85%
    01:00 -7°C° 0 mm 2 mps 750 mmHg 86%
    02:00 -8°C° 0 mm 3 mps 750 mmHg 86%
    03:00 -8°C° 0 mm 3 mps 750 mmHg 87%
    04:00 -9°C° 0.2 mm 4 mps 749 mmHg 89%
    05:00 -10°C° 0.2 mm 4 mps 749 mmHg 91%
    06:00 -11°C° 0.2 mm 5 mps 749 mmHg 93%
    07:00 -11°C° 0.3 mm 5 mps 749 mmHg 93%
    08:00 -10°C° 0.3 mm 5 mps 748 mmHg 93%
    09:00 -10°C° 0.3 mm 5 mps 748 mmHg 93%
    10:00 -10°C° 0.2 mm 5 mps 748 mmHg 93%
    11:00 -8°C° 0.2 mm 5 mps 748 mmHg 93%
    12:00 -8°C° 0.2 mm 5 mps 748 mmHg 93%
    13:00 -7°C° 0.2 mm 5 mps 748 mmHg 94%
    14:00 -7°C° 0.2 mm 5 mps 747 mmHg 94%
    15:00 -7°C° 0.2 mm 4 mps 747 mmHg 94%
    16:00 -5°C° 0.2 mm 4 mps 747 mmHg 95%
    17:00 -5°C° 0.2 mm 4 mps 747 mmHg 95%
    18:00 -5°C° 0.2 mm 4 mps 746 mmHg 96%
    19:00 -5°C° 0.2 mm 4 mps 747 mmHg 96%
    20:00 -4°C° 0.2 mm 4 mps 747 mmHg 97%
    21:00 -4°C° 0.2 mm 3 mps 747 mmHg 97%
    22:00 -2°C° 0.2 mm 3 mps 746 mmHg 97%
    23:00 -2°C° 0.2 mm 3 mps 746 mmHg 97%

    Day after tomorrow, 29 January, Wednesday

    Time Temperature Precipitation Wind Pressure Humidity
    00:00 -2°C° 0.2 mm 3 mps 746 mmHg 97%
    01:00 -2°C° 0.2 mm 3 mps 746 mmHg 97%
    02:00 -2°C° 0.2 mm 3 mps 746 mmHg 97%
    03:00 -2°C° 0.2 mm 3 mps 746 mmHg 97%
    04:00 -4°C° 0.1 mm 3 mps 746 mmHg 97%
    05:00 -4°C° 0.1 mm 3 mps 746 mmHg 97%
    06:00 -4°C° 0.1 mm 3 mps 745 mmHg 97%
    07:00 -2°C° 0 mm 3 mps 745 mmHg 97%
    08:00 -2°C° 0 mm 2 mps 746 mmHg 97%
    09:00 -1°C° 0 mm 2 mps 746 mmHg 97%
    10:00 -1°C° 0 mm 2 mps 746 mmHg 97%
    11:00 -1°C° 0 mm 2 mps 746 mmHg 98%
    12:00 0°C° 0 mm 3 mps 745 mmHg 99%
    13:00 0°C° 0 mm 3 mps 745 mmHg 99%
    14:00 0°C° 0 mm 3 mps 745 mmHg 99%
    15:00 0°C° 0 mm 3 mps 745 mmHg 99%
    16:00 0°C° 0 mm 3 mps 745 mmHg 99%
    17:00 0°C° 0 mm 3 mps 745 mmHg 98%
    18:00 -1°C° 0 mm 4 mps 745 mmHg 98%
    19:00 -1°C° 0.1 mm 4 mps 744 mmHg 98%
    20:00 -1°C° 0.1 mm 5 mps 744 mmHg 98%
    21:00 -1°C° 0.1 mm 5 mps 744 mmHg 98%
    22:00 -1°C° 0.2 mm 5 mps 743 mmHg 97%
    23:00 -3°C° 0.2 mm 6 mps 743 mmHg 97%

    30 January, Thursday

    Time Temperature Precipitation Wind Pressure Humidity
    00:00 -3°C° 0.2 mm 6 mps 743 mmHg 97%
    01:00 -3°C° 0.2 mm 6 mps 742 mmHg 96%
    02:00 -4°C° 0.2 mm 6 mps 742 mmHg 95%
    03:00 -4°C° 0.2 mm 6 mps 741 mmHg 94%
    04:00 -5°C° 0.2 mm 6 mps 741 mmHg 94%
    05:00 -5°C° 0.2 mm 6 mps 740 mmHg 94%
    06:00 -6°C° 0.2 mm 7 mps 740 mmHg 94%
    07:00 -4°C° 0.2 mm 7 mps 739 mmHg 95%
    08:00 -4°C° 0.2 mm 7 mps 739 mmHg 95%
    09:00 -3°C° 0.2 mm 7 mps 738 mmHg 96%
    10:00 -3°C° 0.4 mm 6 mps 738 mmHg 97%
    11:00 -2°C° 0.4 mm 6 mps 738 mmHg 97%
    12:00 -1°C° 0.4 mm 5 mps 737 mmHg 98%
    13:00 -1°C° 0.1 mm 5 mps 737 mmHg 95%
    14:00 -2°C° 0.1 mm 6 mps 737 mmHg 93%
    15:00 -2°C° 0.1 mm 6 mps 737 mmHg 90%
    16:00 -3°C° 0.1 mm 6 mps 737 mmHg 91%
    17:00 -2°C° 0.1 mm 5 mps 737 mmHg 92%
    18:00 -4°C° 0.1 mm 5 mps 737 mmHg 93%
    19:00 -4°C° 0.1 mm 6 mps 737 mmHg 93%
    20:00 -4°C° 0.1 mm 6 mps 737 mmHg 94%
    21:00 -3°C° 0.1 mm 6 mps 737 mmHg 94%
    22:00 -3°C° 0.1 mm 7 mps 737 mmHg 92%
    23:00 -3°C° 0.1 mm 7 mps 736 mmHg 91%

    31 January, Friday

    Time Temperature Precipitation Wind Pressure Humidity
    00:00 -3°C° 0.1 mm 7 mps 736 mmHg 90%
    01:00 -3°C° 0.3 mm 7 mps 736 mmHg 91%
    02:00 -3°C° 0.3 mm 7 mps 735 mmHg 92%
    03:00 -4°C° 0.3 mm 8 mps 735 mmHg 94%
    04:00 -3°C° 0.6 mm 7 mps 735 mmHg 94%
    05:00 -3°C° 0.6 mm 7 mps 734 mmHg 95%
    06:00 -4°C° 0.6 mm 7 mps 734 mmHg 96%
    07:00 -4°C° 0.5 mm 7 mps 734 mmHg 96%
    08:00 -4°C° 0.5 mm 6 mps 734 mmHg 96%
    09:00 -4°C° 0.5 mm 6 mps 734 mmHg 96%
    10:00 -4°C° 0.4 mm 6 mps 734 mmHg 96%
    11:00 -4°C° 0.4 mm 6 mps 734 mmHg 96%
    12:00 -4°C° 0.4 mm 6 mps 734 mmHg 96%
    13:00 -3°C° 0.2 mm 6 mps 734 mmHg 95%
    14:00 -2°C° 0.2 mm 5 mps 735 mmHg 95%
    15:00 -2°C° 0.2 mm 5 mps 735 mmHg 94%
    16:00 -2°C° 0.1 mm 5 mps 735 mmHg 94%
    17:00 -3°C° 0.1 mm 4 mps 736 mmHg 95%
    18:00 -3°C° 0.1 mm 4 mps 736 mmHg 95%
    19:00 -3°C° 0.1 mm 4 mps 737 mmHg 95%
    20:00 -3°C° 0.1 mm 4 mps 737 mmHg 94%
    21:00 -4°C° 0.1 mm 4 mps 738 mmHg 94%
    22:00 -4°C° 0 mm 4 mps 738 mmHg 94%
    23:00 -4°C° 0 mm 3 mps 739 mmHg 94%

    1 February, Saturday

    Time Temperature Precipitation Wind Pressure Humidity
    00:00 -5°C° 0 mm 3 mps 739 mmHg 95%
    01:00 -5°C° 0 mm 3 mps 739 mmHg 94%
    02:00 -4°C° 0 mm 2 mps 740 mmHg 94%
    03:00 -5°C° 0 mm 2 mps 740 mmHg 93%
    04:00 -4°C° 0 mm 2 mps 740 mmHg 92%
    05:00 -4°C° 0 mm 2 mps 741 mmHg 91%
    06:00 -4°C° 0 mm 2 mps 741 mmHg 90%
    07:00 -4°C° 0 mm 2 mps 741 mmHg 90%
    08:00 -4°C° 0 mm 2 mps 742 mmHg 90%
    09:00 -4°C° 0 mm 2 mps 742 mmHg 90%
    10:00 -4°C° 0 mm 2 mps 742 mmHg 90%
    11:00 -3°C° 0 mm 2 mps 742 mmHg 89%
    12:00 -3°C° 0 mm 2 mps 743 mmHg 89%
    13:00 -3°C° 0 mm 2 mps 743 mmHg 89%
    14:00 -3°C° 0 mm 2 mps 743 mmHg 90%
    15:00 -3°C° 0 mm 2 mps 742 mmHg 91%
    16:00 -3°C° 0 mm 2 mps 743 mmHg 93%
    17:00 -4°C° 0 mm 2 mps 743 mmHg 94%
    18:00 -4°C° 0 mm 2 mps 743 mmHg 95%
    19:00 -5°C° 0 mm 3 mps 743 mmHg 94%
    20:00 -4°C° 0 mm 3 mps 743 mmHg 93%
    21:00 -4°C° 0 mm 3 mps 743 mmHg 92%
    22:00 -5°C° 0 mm 3 mps 743 mmHg 92%
    23:00 -6°C° 0 mm 3 mps 743 mmHg 93%
    Show more